STARLINK-34009, 63849

Orbit data source: Space-Track

STARLINK-34009, 63849 is a payload satellite owned by SpaceX/Seattle (US) in LEO that was launched on Wed, 07 May 2025 UTC via an FALCON 9 launch vehicle from the Air Force Eastern Test Range (AFETR). Payload-class satellites include a variety of spacecraft equipped with specific instruments for various scientific and technological missions. These include communications satellites like Starlink; space stations such as the ISS; scientific satellites like the Hubble; Earth observation satellites from companies like Planet Labs, Umbra, and HawkEye 360; GPS; miniature CubeSats for education and research; and military/defense satellites.

Loading next visibility...
Identifier
63849, 2025-093P
Orbit
LEO
Country
Flag of USUS
Related business
Manufacturer
SpaceX/Seattle
Mission
Operational Commercial Communications
Bus & Motor
STARLINK V2MO, Unknown motor
Mass
575 kg wet, ~530 kg dry
Launch date (UTC)
2025-05-07 (1 year ago)
Launch vehicle
FALCON 9
Launch site
Air Force Eastern Test Range (AFETR)
Object type
Payload
Rocket body
Debris
Shape & HBR
Box + 2 Pan, 17.7 m
Radar Cross Section
36.964 m², Large (>1 m²)

Expand to show TLE details & history
Last TLE update: 16 hours ago

TLE from 16 hours ago
0 STARLINK-34009
1 63849U 25093P   26171.17759677  .00011537  00000-0  42787-3 0  9993
2 63849  42.9985 215.8729 0001059 208.8276 151.2518 15.27597691 63689
Epoch: 2026-06-20T04:15Z
TLE epoch observation values (Epoch: 2026-06-20T04:15:44.360Z)
Latitude
0.00001°
Longitude
-116.45788°
Altitude
483.408 km
Speed
7.625 km/s
True Right ascension
14h 23m 29s
True Declination
0° 00' 00"
Sunlit
Object was in full shadow at epoch
Visualization orbit readout
Latitude
Unknown
Longitude
Unknown
Altitude
Unknown
Speed
Unknown
Apparent Right ascension
Unknown
Apparent Declination
Unknown
Sunlit
N/A
Visualization observer readout
Local Sidereal Time
07:24:25
Azimuth
Unknown
Elevation
Unknown
Doppler factor
Unknown
Orbital elements
Apogee altitude
485.668 km
Perigee altitude
484.215 km
Semi-major axis
6,863.079 km
Eccentricity
0.00011
Inclination
42.9985°
RAAN
215.8729°
Arg. of periapsis
208.8276°
True anomaly
151.25764°
Mean anomaly
151.2518°
Eccentric anomaly
151.25472°
Mean motion
3.81737 °/min
Orbital period
94.31 mins
BSTAR
0.00042787
Loading maneuver chart data...
Computing Atmospheric mass density...
Loading historical data...
Loading historical data...
Loading historical data...
Loading historical data...
Loading historical data...
Loading historical data...
Loading historical data...

Documentation

Showing up to 5 results
|